SCP
0 0 0 0 -0 -0 0 0 -0 0 0 -0 -0 -0 -0 0 -0 0 0 0 0 -0 -0 -0 -0 -0 0 0 0 0 0 0 0 0 0 0 0 0 0 0 0 0 0
0 0 0 0 0 -0 0 0 0 0 0 -0 0 0 -0 0 -0 -0 0 0 -0 -0 -0 -0 -0 -0 0 0 0 0 0 0 0 0 0 0 0 0 0 0 0 0 0
0 0 0 0 0 0 0 0 0 -0 0 -0 -0 -0 -0 -0 0 -0 -0 0 -0 -0 -0 -0 -0 -0 0 0 0 0 0 0 0 0 0 0 0 0 0 0 0 0 0
0 0 0 0 0 0 -0 -0 -0 0 0 -0 -0 -0 -0 -0 -0 -0 -0 -0 -0 -0 -0 -0 -0 -0 -0 0 0 0 0 0 0 0 0 0 0 0 0 0 0 0 0
-0 0 -0 -0 -0 -0 -0 -0 -0 -0 -0 -0 -0 -0 -0 -0 -0 -0 -0 -0 -0 -0 -0 -0 -0 -0 -0 0 0 0 0 0 0 0 0 0 0 0 0 0 0 0 0
-0 0 0 -0 -0 -0 -0 -0 -0 -0 -0 -0 -0 -0 -0 -0 -0 -0 -0 -0 -0 -0 -0 -0 -0 -0 -0 0 0 0 0 0 0 0 0 0 0 0 0 0 0 0 0
-0 -0 -0 0 -0 -0 -0 -0 -0 -0 -0 -0 -0 -0 -0 -0 -0 -0 -0 -0 -0 -0 -0 -0 -0 -0 0 0 0 0 0 -0 0 0 0 0 0 0 0 0 0 0 0
-0 -0 -0 0 -0 -0 -0 -0 -0 -0 -0 -0 -0 -0 -0 -0 -0 -0 -0 -0 -0 -0 -0 -0 -0 -0 0 0 0 0 0 0 0 0 0 0 0 0 0 0 0 0 0
-0 -0 -0 -0 -0 -0 -0 -0 -0 -0 -0 -0 -0 -0 -0 -0 -0 -0 0 -0 -0 -0 -0 -0 -0 -0 0 0 0 0 0 0 0 0 0 0 0 0 0 0 0 -0 -0
0 -0 -0 -0 -0 -0 -0 0 0 0 0 -0 -0 -0 -0 -0 -0 0 0 0 -0 -0 -0 -0 -0 0 0 0 0 0 0 0 0 0 0 0 0 0 0 0 0 0 0
0 0 0 -0 0 -0 0 0 0 0 0 -0 -0 -0 -0 0 0 -0 0 0 0 0 0 0 0 0 0 0 0 0 0 0 0 0 0 0 0 0 0 0 0 0 0
0 0 0 0 0 0 0 0 0 0 0 0 0 -0 0 0 0 0 0 0 0 0 0 0 0 0 0 0 0 0 0 0 0 0 0 0 0 0 0 0 0 0 0
0 0 0 0 0 0 0 0 0 0 0 0 0 0 0 0 0 0 0 0 0 0 0 0 0 0 0 0 0 0 0 0 0 0 0 0 0 0 0 0 0 0 0
0 0 0 0 0 0 0 0 0 0 0 0 0 0 0 0 0 0 0 0 0 0 0 0 0 0 0 0 0 0 0 0 0 0 0 0 0 0 0 0 0 0 0
0 0 0 0 0 0 0 0 0 0 0 0 0 0 0 0 0 0 0 0 0 0 0 0 0 0 0 0 0 0 0 0 0 0 0 0 0 0 0 0 0 0 0
0 0 0 0 0 0 0 0 0 0 0 0 0 0 0 0 0 0 0 0 0 0 0 0 0 0 0 0 0 0 0 0 0 0 0 0 0 0 0 0 0 0 0
0 0 0 0 0 0 0 0 0 0 0 0 0 0 0 0 0 0 0 0 0 0 0 0 0 0 0 0 0 0 0 0 0 0 0 0 0 0 0 0 0 0 0
0 0 0 0 0 0 0 0 0 0 0 0 0 0 0 0 0 0 0 0 0 0 0 0 0 0 0 0 0 0 0 0 0 0 0 0 0 0 0 0 0 0 0
0 0 0 0 0 0 0 0 0 0 0 0 0 0 0 0 0 0 0 0 0 0 0 0 0 0 0 0 0 0 0 0 0 0 0 0 0 0 0 0 0 0 0
0 0 0 0 0 0 0 0 0 0 0 0 0 0 0 0 0 0 0 0 0 0 0 0 0 0 0 0 0 0 0 0 0 0 0 0 0 0 0 0 0 0 0
0 0 0 0 0 0 0 0 0 0 0 0 0 0 0 0 0 0 0 0 0 0 0 0 0 0 0 0 0 0 0 0 0 0 0 0 0 0 0 0 0 0 0
0 0 0 0 0 0 0 0 0 0 0 0 0 0 0 0 0 0 0 0 0 0 0 0 0 0 0 0 0 0 0 0 0 0 0 0 0 0 0 0 0 0 0
0 0 0 0 0 0 0 0 0 0 0 0 0 0 0 0 0 0 0 0 0 0 0 0 0 0 0 0 0 0 0 0 0 0 0 0 0 0 0 0 0 0 0
0 0 0 0 0 0 0 0 0 0 0 0 0 0 0 0 0 0 0 0 0 0 0 0 0 0 0 0 0 0 0 0 0 0 0 0 0 0 0 0 0 0 0
0 0 0 0 0 0 0 0 0 0 0 0 0 0 0 0 0 0 0 0 0 0 0 0 0 0 0 0 0 0 0 0 0 0 0 0 0 0 0 0 0 0 0
0 0 0 0 0 0 0 0 0 0 0 0 0 0 0 0 0 0 0 0 0 0 0 0 0 0 0 0 0 0 0 0 0 0 0 0 0 0 0 0 0 0 0
Wind_Speed_500mb
29 28 25 27 31 27 26 26 24 20 21 19 16 17 19 22 29 33 34 32 31 31 41 36 32 35 36 38 38 35 35 38 45 48 42 42 49 51 54 48 43 43 39
31 32 29 28 29 27 25 24 19 14 14 15 15 14 20 25 32 34 33 33 31 33 38 37 35 36 36 36 34 33 33 35 39 47 38 36 40 42 49 44 40 40 40
32 33 33 30 29 23 24 22 18 12 10 12 14 19 25 26 31 33 31 34 32 30 38 27 34 36 35 34 33 32 31 34 34 37 39 34 38 38 41 43 39 34 42
34 33 32 30 26 23 22 19 16 12 11 12 15 21 23 26 28 32 30 33 28 27 35 28 32 34 34 35 34 34 34 34 32 34 33 32 35 39 40 38 35 34 35
36 33 34 31 26 23 22 19 15 12 9 12 18 23 24 24 25 32 34 31 24 25 30 29 30 30 32 33 34 35 34 34 32 35 34 33 32 35 32 31 27 26 28
37 35 32 29 26 23 21 19 15 12 9 10 16 21 21 21 23 28 29 33 26 24 26 27 28 29 31 32 32 33 33 30 33 32 32 34 31 30 30 31 30 30 33
37 37 34 30 26 24 21 18 15 11 11 11 12 16 17 18 20 23 27 27 29 23 24 26 28 28 29 29 30 30 28 27 28 27 30 31 29 28 28 28 28 28 28
36 37 35 33 29 27 23 18 14 14 14 15 13 13 15 15 16 20 22 23 25 23 24 26 27 26 26 26 26 25 24 24 26 25 24 26 24 23 23 25 24 26 26
34 36 37 34 32 29 25 21 17 16 24 20 16 13 13 14 16 18 20 20 21 21 23 24 24 22 22 22 21 20 20 19 20 19 23 19 20 19 20 21 21 22 20
36 37 37 35 35 32 29 24 20 17 21 21 19 19 15 15 15 17 17 19 19 19 20 21 20 19 19 18 17 17 16 15 16 16 16 16 17 14 16 17 19 18 21
40 40 39 40 39 37 34 29 25 23 25 24 22 21 18 17 18 18 18 18 20 20 19 18 18 17 16 14 13 12 11 10 11 11 9 11 13 13 12 11 14 16 18
47 43 41 40 39 38 35 32 29 27 28 28 26 22 22 20 19 19 20 20 20 21 19 17 15 14 13 11 9 8 8 7 7 6 3 4 8 7 6 10 11 11 15
46 47 45 43 40 39 38 36 34 31 31 32 29 28 27 24 22 22 22 22 20 21 21 19 16 14 12 11 9 9 9 7 6 4 2 1 4 6 8 10 12 11 14
49 48 47 46 44 42 40 39 36 34 33 33 33 33 31 27 28 27 25 24 23 22 21 20 18 14 12 11 11 11 11 11 9 8 7 5 4 5 8 9 11 10 11
49 49 51 50 49 46 44 42 41 38 36 35 35 34 33 32 31 31 30 28 25 23 23 20 18 17 15 14 14 14 15 15 13 12 12 10 9 8 9 9 10 9 9
46 48 52 53 53 51 49 47 45 43 40 38 39 38 37 34 35 35 34 31 28 27 26 23 21 19 18 18 18 18 18 19 18 16 16 15 14 13 12 12 11 10 8
48 50 50 56 57 57 54 51 51 50 46 44 44 41 41 40 40 39 38 35 33 31 30 28 25 24 23 22 21 22 21 22 21 20 20 19 18 17 16 15 12 12 8
51 54 54 57 64 61 61 59 59 55 54 51 50 48 47 46 44 44 42 40 38 37 36 34 31 29 27 26 25 25 25 24 23 22 23 21 20 19 19 17 15 11 6
54 57 58 61 66 68 65 65 64 62 62 59 58 57 54 50 50 49 47 43 41 42 41 39 36 33 32 30 29 29 28 27 25 23 25 25 24 24 22 20 19 16 16
63 63 65 67 66 70 72 71 71 70 70 69 69 66 61 59 57 56 53 49 46 47 45 44 41 38 35 32 32 32 32 30 28 25 28 30 29 26 26 25 22 23 21
71 74 73 73 72 76 80 83 84 84 81 81 79 74 70 68 66 64 61 57 55 54 50 47 44 43 41 38 34 31 34 35 35 35 35 36 33 30 26 29 24 25 24
76 76 81 84 81 82 84 85 87 87 89 88 84 82 79 78 75 73 69 66 63 59 56 55 52 49 47 44 35 23 16 21 33 37 41 37 34 31 27 22 26 27 30
79 88 89 88 89 88 88 90 93 93 91 93 95 92 91 87 84 83 77 73 70 67 65 62 58 57 53 50 46 27 15 19 13 21 30 33 32 34 29 30 35 33 35
77 80 85 94 94 97 94 98 104 108 111 107 102 95 95 94 93 89 85 81 77 75 72 68 63 62 59 49 50 52 46 40 18 13 23 27 34 37 39 44 43 43 42
60 68 72 82 95 105 101 105 106 113 117 113 107 104 102 98 97 95 91 88 85 83 78 73 70 69 67 64 61 55 53 54 54 42 37 32 42 40 43 46 42 43 46
56 60 64 70 79 89 106 116 116 115 118 113 111 115 111 106 101 101 99 95 91 90 86 78 75 72 71 67 67 66 60 63 62 61 60 55 56 53 53 56 53 51 49
Wind_Direction_500mb
163 148 141 142 135 133 137 132 132 127 119 110 98 87 95 97 101 100 97 95 99 91 98 103 102 98 94 99 100 95 89 82 88 87 80 73 75 72 79 77 76 73 80
163 149 147 147 139 137 143 141 139 136 126 117 101 104 107 109 105 105 101 97 97 91 96 98 97 100 96 96 98 93 87 84 95 93 85 74 77 82 85 83 74 72 83
166 155 155 152 145 145 145 145 136 126 121 111 114 124 115 114 114 110 106 104 107 98 100 97 98 96 94 95 95 91 89 91 100 92 80 75 78 87 89 86 76 79 77
167 160 161 158 154 153 149 150 144 130 126 117 125 124 117 115 116 113 106 103 103 102 111 106 100 98 95 94 93 91 90 91 96 90 81 79 76 85 93 88 90 81 77
169 165 168 163 161 161 162 155 151 143 130 123 133 130 125 122 124 118 113 110 111 108 110 107 107 101 99 97 94 92 91 93 91 82 83 78 79 84 87 86 85 77 78
172 170 173 165 173 169 166 162 165 157 142 124 126 133 129 126 123 128 128 129 126 116 110 106 108 106 102 100 96 91 89 89 85 85 80 91 84 83 83 81 81 74 67
177 177 177 172 178 177 176 174 171 171 156 153 131 133 128 125 129 136 133 130 125 120 116 110 111 110 105 103 100 96 92 88 87 85 90 82 81 84 80 78 70 65 57
181 183 183 182 185 185 189 193 187 181 178 168 162 151 142 135 137 141 144 138 136 132 123 116 113 114 111 106 102 98 91 87 85 86 85 86 76 75 74 69 60 49 45
183 186 186 188 190 194 202 206 206 191 187 180 174 170 162 150 146 148 147 143 142 135 131 123 123 119 116 113 110 103 96 91 90 89 89 87 86 80 67 59 50 45 44
189 190 191 188 192 197 207 216 217 202 194 187 185 173 173 162 159 155 154 155 151 146 140 134 133 124 121 126 121 112 104 98 95 87 85 99 86 70 60 52 49 41 27
199 197 197 199 200 203 210 217 219 208 206 197 198 183 182 179 175 168 171 170 167 159 153 146 143 134 133 133 133 126 120 112 102 98 87 91 86 53 56 43 31 35 24
206 204 205 206 209 211 213 217 218 216 210 211 207 195 193 192 190 182 182 183 179 172 166 164 160 152 147 148 148 151 153 143 130 116 103 88 87 69 31 18 17 13 16
218 212 210 212 213 214 214 216 218 216 212 213 214 206 201 200 198 196 194 193 187 181 180 183 179 177 177 181 184 189 197 192 188 189 228 43 38 20 357 352 355 357 9
222 222 220 219 217 216 216 219 223 221 219 216 214 210 208 206 206 204 204 200 196 193 193 195 196 198 202 204 211 216 222 222 218 229 250 263 296 326 324 325 334 354 359
231 230 226 224 222 222 220 223 223 222 221 221 217 216 211 212 209 211 211 209 205 205 207 210 212 215 217 220 225 230 237 240 239 244 254 263 273 287 302 304 313 327 350
233 233 232 229 229 227 227 227 228 225 223 222 221 219 216 216 216 215 216 215 214 215 218 221 224 226 228 231 233 236 241 247 248 250 254 262 266 277 287 286 292 294 316
242 238 236 232 232 230 231 231 231 230 227 224 224 223 222 221 219 220 221 220 219 221 224 228 230 232 234 237 240 244 246 249 253 255 257 261 267 271 275 275 281 284 304
249 246 240 235 233 233 233 233 233 232 231 229 228 226 225 224 222 221 222 224 223 225 228 231 233 237 238 242 244 249 253 256 257 259 260 261 264 266 271 266 268 268 263
253 249 245 240 237 234 234 236 236 236 235 233 232 229 227 226 226 225 225 226 227 228 231 232 235 236 241 245 248 253 257 259 260 266 268 268 269 267 263 261 266 255 250
256 253 247 244 241 237 235 235 236 237 237 236 236 234 231 228 228 228 228 228 228 230 232 234 236 239 241 244 251 256 260 259 254 265 267 271 272 267 266 264 265 257 257
253 253 251 247 242 236 233 233 233 234 235 235 237 236 234 232 230 230 230 230 230 231 234 237 239 241 242 244 249 257 259 263 261 255 256 261 264 265 277 256 257 256 256
252 253 253 251 244 240 239 239 238 239 238 238 238 238 237 235 232 232 230 232 232 232 234 237 237 242 242 242 240 237 253 265 268 258 251 254 256 256 262 275 254 254 255
255 251 251 250 248 246 246 240 240 238 239 239 238 236 235 236 235 235 232 232 234 234 234 237 238 240 243 245 239 229 233 241 240 259 245 242 246 250 251 265 258 254 255
263 262 258 256 254 251 249 244 242 240 240 241 239 238 236 233 234 236 235 233 234 236 235 237 238 239 240 237 243 239 244 242 239 250 240 242 251 260 256 260 264 264 264
280 280 276 269 260 257 253 250 247 245 245 246 243 242 239 236 234 235 235 234 234 236 236 236 237 238 240 241 245 245 240 247 245 243 250 253 252 259 271 274 269 270 272
293 289 284 274 268 264 261 257 252 252 250 241 239 241 242 238 234 233 234 234 236 236 237 236 239 239 241 243 244 246 242 241 244 241 245 246 255 261 264 270 272 272 277
Wind_Speed_850mb
29 28 25 27 31 27 26 26 24 20 21 19 16 17 19 22 29 33 34 32 31 31 41 36 32 35 36 38 38 35 35 38 45 48 42 42 49 51 54 48 43 43 39
31 32 29 28 29 27 25 24 19 14 14 15 15 14 20 25 32 34 33 33 31 33 38 37 35 36 36 36 34 33 33 35 39 47 38 36 40 42 49 44 40 40 40
32 33 33 30 29 23 24 22 18 12 10 12 14 19 25 26 31 33 31 34 32 30 38 27 34 36 35 34 33 32 31 34 34 37 39 34 38 38 41 43 39 34 42
34 33 32 30 26 23 22 19 16 12 11 12 15 21 23 26 28 32 30 33 28 27 35 28 32 34 34 35 34 34 34 34 32 34 33 32 35 39 40 38 35 34 35
36 33 34 31 26 23 22 19 15 12 9 12 18 23 24 24 25 32 34 31 24 25 30 29 30 30 32 33 34 35 34 34 32 35 34 33 32 35 32 31 27 26 28
37 35 32 29 26 23 21 19 15 12 9 10 16 21 21 21 23 28 29 33 26 24 26 27 28 29 31 32 32 33 33 30 33 32 32 34 31 30 30 31 30 30 33
37 37 34 30 26 24 21 18 15 11 11 11 12 16 17 18 20 23 27 27 29 23 24 26 28 28 29 29 30 30 28 27 28 27 30 31 29 28 28 28 28 28 28
36 37 35 33 29 27 23 18 14 14 14 15 13 13 15 15 16 20 22 23 25 23 24 26 27 26 26 26 26 25 24 24 26 25 24 26 24 23 23 25 24 26 26
34 36 37 34 32 29 25 21 17 16 24 20 16 13 13 14 16 18 20 20 21 21 23 24 24 22 22 22 21 20 20 19 20 19 23 19 20 19 20 21 21 22 20
36 37 37 35 35 32 29 24 20 17 21 21 19 19 15 15 15 17 17 19 19 19 20 21 20 19 19 18 17 17 16 15 16 16 16 16 17 14 16 17 19 18 21
40 40 39 40 39 37 34 29 25 23 25 24 22 21 18 17 18 18 18 18 20 20 19 18 18 17 16 14 13 12 11 10 11 11 9 11 13 13 12 11 14 16 18
47 43 41 40 39 38 35 32 29 27 28 28 26 22 22 20 19 19 20 20 20 21 19 17 15 14 13 11 9 8 8 7 7 6 3 4 8 7 6 10 11 11 15
46 47 45 43 40 39 38 36 34 31 31 32 29 28 27 24 22 22 22 22 20 21 21 19 16 14 12 11 9 9 9 7 6 4 2 1 4 6 8 10 12 11 14
49 48 47 46 44 42 40 39 36 34 33 33 33 33 31 27 28 27 25 24 23 22 21 20 18 14 12 11 11 11 11 11 9 8 7 5 4 5 8 9 11 10 11
49 49 51 50 49 46 44 42 41 38 36 35 35 34 33 32 31 31 30 28 25 23 23 20 18 17 15 14 14 14 15 15 13 12 12 10 9 8 9 9 10 9 9
46 48 52 53 53 51 49 47 45 43 40 38 39 38 37 34 35 35 34 31 28 27 26 23 21 19 18 18 18 18 18 19 18 16 16 15 14 13 12 12 11 10 8
48 50 50 56 57 57 54 51 51 50 46 44 44 41 41 40 40 39 38 35 33 31 30 28 25 24 23 22 21 22 21 22 21 20 20 19 18 17 16 15 12 12 8
51 54 54 57 64 61 61 59 59 55 54 51 50 48 47 46 44 44 42 40 38 37 36 34 31 29 27 26 25 25 25 24 23 22 23 21 20 19 19 17 15 11 6
54 57 58 61 66 68 65 65 64 62 62 59 58 57 54 50 50 49 47 43 41 42 41 39 36 33 32 30 29 29 28 27 25 23 25 25 24 24 22 20 19 16 16
63 63 65 67 66 70 72 71 71 70 70 69 69 66 61 59 57 56 53 49 46 47 45 44 41 38 35 32 32 32 32 30 28 25 28 30 29 26 26 25 22 23 21
71 74 73 73 72 76 80 83 84 84 81 81 79 74 70 68 66 64 61 57 55 54 50 47 44 43 41 38 34 31 34 35 35 35 35 36 33 30 26 29 24 25 24
76 76 81 84 81 82 84 85 87 87 89 88 84 82 79 78 75 73 69 66 63 59 56 55 52 49 47 44 35 23 16 21 33 37 41 37 34 31 27 22 26 27 30
79 88 89 88 89 88 88 90 93 93 91 93 95 92 91 87 84 83 77 73 70 67 65 62 58 57 53 50 46 27 15 19 13 21 30 33 32 34 29 30 35 33 35
77 80 85 94 94 97 94 98 104 108 111 107 102 95 95 94 93 89 85 81 77 75 72 68 63 62 59 49 50 52 46 40 18 13 23 27 34 37 39 44 43 43 42
60 68 72 82 95 105 101 105 106 113 117 113 107 104 102 98 97 95 91 88 85 83 78 73 70 69 67 64 61 55 53 54 54 42 37 32 42 40 43 46 42 43 46
56 60 64 70 79 89 106 116 116 115 118 113 111 115 111 106 101 101 99 95 91 90 86 78 75 72 71 67 67 66 60 63 62 61 60 55 56 53 53 56 53 51 49
Wind_Direction_850mb
163 148 141 142 135 133 137 132 132 127 119 110 98 87 95 97 101 100 97 95 99 91 98 103 102 98 94 99 100 95 89 82 88 87 80 73 75 72 79 77 76 73 80
163 149 147 147 139 137 143 141 139 136 126 117 101 104 107 109 105 105 101 97 97 91 96 98 97 100 96 96 98 93 87 84 95 93 85 74 77 82 85 83 74 72 83
166 155 155 152 145 145 145 145 136 126 121 111 114 124 115 114 114 110 106 104 107 98 100 97 98 96 94 95 95 91 89 91 100 92 80 75 78 87 89 86 76 79 77
167 160 161 158 154 153 149 150 144 130 126 117 125 124 117 115 116 113 106 103 103 102 111 106 100 98 95 94 93 91 90 91 96 90 81 79 76 85 93 88 90 81 77
169 165 168 163 161 161 162 155 151 143 130 123 133 130 125 122 124 118 113 110 111 108 110 107 107 101 99 97 94 92 91 93 91 82 83 78 79 84 87 86 85 77 78
172 170 173 165 173 169 166 162 165 157 142 124 126 133 129 126 123 128 128 129 126 116 110 106 108 106 102 100 96 91 89 89 85 85 80 91 84 83 83 81 81 74 67
177 177 177 172 178 177 176 174 171 171 156 153 131 133 128 125 129 136 133 130 125 120 116 110 111 110 105 103 100 96 92 88 87 85 90 82 81 84 80 78 70 65 57
181 183 183 182 185 185 189 193 187 181 178 168 162 151 142 135 137 141 144 138 136 132 123 116 113 114 111 106 102 98 91 87 85 86 85 86 76 75 74 69 60 49 45
183 186 186 188 190 194 202 206 206 191 187 180 174 170 162 150 146 148 147 143 142 135 131 123 123 119 116 113 110 103 96 91 90 89 89 87 86 80 67 59 50 45 44
189 190 191 188 192 197 207 216 217 202 194 187 185 173 173 162 159 155 154 155 151 146 140 134 133 124 121 126 121 112 104 98 95 87 85 99 86 70 60 52 49 41 27
199 197 197 199 200 203 210 217 219 208 206 197 198 183 182 179 175 168 171 170 167 159 153 146 143 134 133 133 133 126 120 112 102 98 87 91 86 53 56 43 31 35 24
206 204 205 206 209 211 213 217 218 216 210 211 207 195 193 192 190 182 182 183 179 172 166 164 160 152 147 148 148 151 153 143 130 116 103 88 87 69 31 18 17 13 16
218 212 210 212 213 214 214 216 218 216 212 213 214 206 201 200 198 196 194 193 187 181 180 183 179 177 177 181 184 189 197 192 188 189 228 43 38 20 357 352 355 357 9
222 222 220 219 217 216 216 219 223 221 219 216 214 210 208 206 206 204 204 200 196 193 193 195 196 198 202 204 211 216 222 222 218 229 250 263 296 326 324 325 334 354 359
231 230 226 224 222 222 220 223 223 222 221 221 217 216 211 212 209 211 211 209 205 205 207 210 212 215 217 220 225 230 237 240 239 244 254 263 273 287 302 304 313 327 350
233 233 232 229 229 227 227 227 228 225 223 222 221 219 216 216 216 215 216 215 214 215 218 221 224 226 228 231 233 236 241 247 248 250 254 262 266 277 287 286 292 294 316
242 238 236 232 232 230 231 231 231 230 227 224 224 223 222 221 219 220 221 220 219 221 224 228 230 232 234 237 240 244 246 249 253 255 257 261 267 271 275 275 281 284 304
249 246 240 235 233 233 233 233 233 232 231 229 228 226 225 224 222 221 222 224 223 225 228 231 233 237 238 242 244 249 253 256 257 259 260 261 264 266 271 266 268 268 263
253 249 245 240 237 234 234 236 236 236 235 233 232 229 227 226 226 225 225 226 227 228 231 232 235 236 241 245 248 253 257 259 260 266 268 268 269 267 263 261 266 255 250
256 253 247 244 241 237 235 235 236 237 237 236 236 234 231 228 228 228 228 228 228 230 232 234 236 239 241 244 251 256 260 259 254 265 267 271 272 267 266 264 265 257 257
253 253 251 247 242 236 233 233 233 234 235 235 237 236 234 232 230 230 230 230 230 231 234 237 239 241 242 244 249 257 259 263 261 255 256 261 264 265 277 256 257 256 256
252 253 253 251 244 240 239 239 238 239 238 238 238 238 237 235 232 232 230 232 232 232 234 237 237 242 242 242 240 237 253 265 268 258 251 254 256 256 262 275 254 254 255
255 251 251 250 248 246 246 240 240 238 239 239 238 236 235 236 235 235 232 232 234 234 234 237 238 240 243 245 239 229 233 241 240 259 245 242 246 250 251 265 258 254 255
263 262 258 256 254 251 249 244 242 240 240 241 239 238 236 233 234 236 235 233 234 236 235 237 238 239 240 237 243 239 244 242 239 250 240 242 251 260 256 260 264 264 264
280 280 276 269 260 257 253 250 247 245 245 246 243 242 239 236 234 235 235 234 234 236 236 236 237 238 240 241 245 245 240 247 245 243 250 253 252 259 271 274 269 270 272
293 289 284 274 268 264 261 257 252 252 250 241 239 241 242 238 234 233 234 234 236 236 237 236 239 239 241 243 244 246 242 241 244 241 245 246 255 261 264 270 272 272 277